Welcome to our new website - Welkom op onze vernieuwde website - Bienvenue sur notre nouveau site web - Willkommen auf unserer neuen Website
Check our progress frequently. Prüfen Sie unsere Fortschritte regelmäßig. Consultez notre progression fréquemment. Komt u straks nog eens terug


Webcam zuid Meer informatie Webcam zuid


Onweer radar Meer informatie blitzortung!


Regen radar Meer informatie rain snow radar


Bezoek onze andere website:

Template documentation
and downloads

And another site


U vindt ons ook hier:

Het Weer Aktueel

UK Metoffice

European Weather Network

WeatherCloud

Weather Underground

AWEKAS

Citizen Weather Observer Program (CWOP)

HAMweather, WeatherForYou, PWS Weather

Wetterpage 24

Roosendaal op internet

VWKWEB

RadioZuidWestFM



Het weer levert geen direct gevaar op.    Er zijn geen waarschuwingen afgegeven.

Select another period ( hide this area )

Eenheden Periode Custom range Directly to
Metrisch Engels Beide
Dagelijkse Wekelijkse Maandelijkse Jaarlijkse
use both date-selectors for a custom range
previous Dag
With this date

WeatherUnderground graphs for this period ( click here )



Warning: Division by zero in /var/www/vhosts/meteoroosendaalwest.nl/weather2/weather28m/wu/WU-History4.php on line 835
Dagelijkse Samenvatting Woensdag 24 oktober 2018
Tijd Temp. ( °C ) Dew pt. ( °C ) Wind ( km/h ) van Windvlaag ( km/h ) Luchtdruk ( hPa ) Humid.( % ) Rainrate ( cm ) Zonneschijn ( W/m2 )
Hoog14,6 12,8 31,5 Westen ( 313/759 ) 27,4 1024,9 89 - 0
Gemiddeld14,3 12,3 16,9 Westen #30/72 12,2 1026,0 88 - 0 #0/72
Laag13,7 11,8 4,7   6,0 1023,6 87 -  
Dagelijkse Tabular details for Woensdag 24 oktober 2018
Tijd Temp. ( °C ) Dew pt. ( °C ) Wind ( km/h ) van Windvlaag ( km/h ) Luchtdruk ( hPa ) Humid.( % ) Rainrate ( cm ) Zonneschijn ( W/m2 )
00:04 13,7 11,8 14,8 NW 11,9 1024,9 88 - -
00:10 13,8 11,8 18,5 WNW 9,7 1024,9 88 - -
00:15 13,8 11,8 18,5 WNW 11,4 1024,6 88 - -
00:19 13,8 11,9 20,4 WNW 15,0 1024,6 88 - -
00:24 13,8 11,9 16,7 Westen 11,1 1024,6 88 - -
00:29 13,8 11,9 16,7 WNW 12,1 1024,9 88 - -
00:34 13,8 11,9 14,8 Westen 10,5 1024,9 88 - -
00:39 13,9 11,9 16,7 WZW 8,7 1024,9 88 - -
00:44 13,9 12,0 16,7 Westen 11,3 1024,3 88 - -
00:49 13,9 11,9 11,1 WZW 17,7 1023,9 88 - -
00:54 13,9 12,1 11,1 Westen 19,3 1023,9 89 - -
00:59 14,1 12,3 18,5 Westen 14,2 1024,3 89 - -
01:04 14,1 12,3 16,7 Westen 11,4 1024,3 89 - -
01:09 14,1 12,3 20,4 WNW 9,2 1024,6 89 - -
01:14 14,1 12,3 24,1 Westen 14,5 1024,3 89 - -
01:19 14,1 12,3 13,0 WNW 10,0 1024,6 89 - -
01:24 14,1 12,3 22,2 Westen 12,9 1024,3 89 - -
01:29 14,1 12,2 16,7 Westen 11,3 1024,3 88 - -
01:34 14,1 12,2 20,4 Westen 10,5 1024,3 88 - -
01:39 14,1 12,2 22,2 WNW 8,4 1024,6 88 - -
01:44 14,1 12,1 14,3 Westen 27,4 1023,9 88 - -
01:49 14,2 12,3 18,5 WNW 11,7 1024,3 88 - -
01:54 14,2 12,2 16,1 WZW 10,8 1024,6 88 - -
01:59 14,2 12,1 16,7 Westen 6,8 1024,6 87 - -
02:04 14,2 12,1 16,7 NW 10,3 1024,6 87 - -
02:09 14,2 12,1 18,5 WNW 12,6 1024,6 87 - -
02:14 14,3 12,2 31,5 WNW 12,9 1024,6 87 - -
02:19 14,3 12,2 20,4 Westen 8,0 1024,3 87 - -
02:24 14,3 12,2 18,5 WNW 9,0 1024,3 87 - -
02:29 14,3 12,2 20,4 Westen 12,6 1024,6 87 - -
02:34 14,3 12,2 9,7 WNW 10,0 1024,3 87 - -
02:39 14,3 12,2 11,1 Westen 20,9 1023,9 87 - -
02:44 14,4 12,4 18,5 Westen 10,8 1024,3 88 - -
02:49 14,3 12,4 13,0 Westen 9,0 1024,3 88 - -
02:54 14,3 12,4 14,8 WNW 6,0 1024,3 88 - -
02:59 14,3 12,3 18,5 Westen 10,9 1024,3 88 - -
03:04 14,2 12,2 20,9 WNW 25,7 1023,9 88 - -
03:09 14,3 12,3 18,5 WZW 10,5 1024,3 88 - -
03:14 14,3 12,3 13,0 Westen 10,9 1023,9 88 - -
03:19 14,3 12,3 18,5 WNW 12,7 1023,9 88 - -
03:24 14,2 12,2 7,9 NW 20,9 1023,6 88 - -
03:29 14,3 12,4 12,9 WZW 9,8 1024,3 88 - -
03:34 14,3 12,4 17,7 WZW 11,9 1024,3 88 - -
03:39 14,4 12,4 18,5 WNW 10,3 1024,3 88 - -
03:44 14,4 12,4 11,3 Westen 8,7 1024,3 88 - -
03:49 14,4 12,4 18,5 WZW 12,6 1024,3 88 - -
03:54 14,4 12,5 22,2 Westen 14,5 1024,3 88 - -
03:59 14,4 12,5 14,8 NW 9,0 1024,3 88 - -
04:04 14,4 12,4 11,1 Westen 24,1 1023,6 88 - -
04:09 14,5 12,6 14,8 WNW 9,5 1024,3 88 - -
04:14 14,5 12,6 22,2 WNW 8,5 1023,9 88 - -
04:19 14,5 12,6 17,7 Westen 11,7 1024,3 88 - -
04:24 14,5 12,6 18,5 WNW 12,1 1024,3 88 - -
04:29 14,5 12,6 18,5 WNW 12,1 1024,3 88 - -
04:34 14,6 12,6 17,7 NNO 7,4 1024,3 88 - -
04:39 14,6 12,7 17,7 NW 12,7 1024,3 88 - -
04:44 14,6 12,7 16,1 Westen 11,7 1024,3 88 - -
04:49 14,6 12,6 20,4 Westen 13,8 1024,3 88 - -
04:54 14,6 12,6 19,3 WZW 12,4 1024,3 88 - -
04:59 14,5 12,7 4,7 WNW 16,1 1023,9 89 - -
05:04 14,6 12,8 16,7 WNW 9,7 1024,3 89 - -
05:09 14,6 12,8 14,8 Westen 10,5 1024,3 89 - -
05:14 14,6 12,8 20,4 WNW 10,5 1024,3 89 - -
05:19 14,6 12,8 20,4 NNW 11,7 1024,3 89 - -
05:24 14,6 12,8 20,4 Westen 13,4 1024,3 89 - -
05:29 14,6 12,7 16,7 Westen 10,1 1024,3 88 - -
05:34 14,6 12,7 18,5 WNW 11,6 1024,3 88 - -
05:39 14,6 12,6 16,7 Westen 10,0 1024,3 88 - -
05:44 14,6 12,6 20,4 NW 13,4 1024,3 88 - -
05:49 14,6 12,6 18,5 NW 10,8 1024,3 88 - -
05:54 14,6 12,6 11,1 Westen 10,8 1023,9 88 - -
05:59 14,6 12,6 4,7 NNW 22,5 1023,6 88 - -
Dagelijkse Samenvatting Woensdag 24 oktober 2018
Tijd Temp. ( °C ) Dew pt. ( °C ) Wind ( km/h ) van Windvlaag ( km/h ) Luchtdruk ( hPa ) Humid.( % ) Rainrate ( cm ) Zonneschijn ( W/m2 )
Hoog14,6 12,8 31,5 Westen ( 313/759 ) 27,4 1024,9 89 - 0
Gemiddeld14,3 12,3 16,9 Westen #30/72 12,2 1026,0 88 - 0 #0/72
Laag13,7 11,8 4,7   6,0 1023,6 87 -  
Dagelijkse Tabular details for Woensdag 24 oktober 2018
Tijd Temp. ( °C ) Dew pt. ( °C ) Wind ( km/h ) van Windvlaag ( km/h ) Luchtdruk ( hPa ) Humid.( % ) Rainrate ( cm ) Zonneschijn ( W/m2 )
00:04 13,7 11,8 14,8 NW 11,9 1024,9 88 - -
00:10 13,8 11,8 18,5 WNW 9,7 1024,9 88 - -
00:15 13,8 11,8 18,5 WNW 11,4 1024,6 88 - -
00:19 13,8 11,9 20,4 WNW 15,0 1024,6 88 - -
00:24 13,8 11,9 16,7 Westen 11,1 1024,6 88 - -
00:29 13,8 11,9 16,7 WNW 12,1 1024,9 88 - -
00:34 13,8 11,9 14,8 Westen 10,5 1024,9 88 - -
00:39 13,9 11,9 16,7 WZW 8,7 1024,9 88 - -
00:44 13,9 12,0 16,7 Westen 11,3 1024,3 88 - -
00:49 13,9 11,9 11,1 WZW 17,7 1023,9 88 - -
00:54 13,9 12,1 11,1 Westen 19,3 1023,9 89 - -
00:59 14,1 12,3 18,5 Westen 14,2 1024,3 89 - -
01:04 14,1 12,3 16,7 Westen 11,4 1024,3 89 - -
01:09 14,1 12,3 20,4 WNW 9,2 1024,6 89 - -
01:14 14,1 12,3 24,1 Westen 14,5 1024,3 89 - -
01:19 14,1 12,3 13,0 WNW 10,0 1024,6 89 - -
01:24 14,1 12,3 22,2 Westen 12,9 1024,3 89 - -
01:29 14,1 12,2 16,7 Westen 11,3 1024,3 88 - -
01:34 14,1 12,2 20,4 Westen 10,5 1024,3 88 - -
01:39 14,1 12,2 22,2 WNW 8,4 1024,6 88 - -
01:44 14,1 12,1 14,3 Westen 27,4 1023,9 88 - -
01:49 14,2 12,3 18,5 WNW 11,7 1024,3 88 - -
01:54 14,2 12,2 16,1 WZW 10,8 1024,6 88 - -
01:59 14,2 12,1 16,7 Westen 6,8 1024,6 87 - -
02:04 14,2 12,1 16,7 NW 10,3 1024,6 87 - -
02:09 14,2 12,1 18,5 WNW 12,6 1024,6 87 - -
02:14 14,3 12,2 31,5 WNW 12,9 1024,6 87 - -
02:19 14,3 12,2 20,4 Westen 8,0 1024,3 87 - -
02:24 14,3 12,2 18,5 WNW 9,0 1024,3 87 - -
02:29 14,3 12,2 20,4 Westen 12,6 1024,6 87 - -
02:34 14,3 12,2 9,7 WNW 10,0 1024,3 87 - -
02:39 14,3 12,2 11,1 Westen 20,9 1023,9 87 - -
02:44 14,4 12,4 18,5 Westen 10,8 1024,3 88 - -
02:49 14,3 12,4 13,0 Westen 9,0 1024,3 88 - -
02:54 14,3 12,4 14,8 WNW 6,0 1024,3 88 - -
02:59 14,3 12,3 18,5 Westen 10,9 1024,3 88 - -
03:04 14,2 12,2 20,9 WNW 25,7 1023,9 88 - -
03:09 14,3 12,3 18,5 WZW 10,5 1024,3 88 - -
03:14 14,3 12,3 13,0 Westen 10,9 1023,9 88 - -
03:19 14,3 12,3 18,5 WNW 12,7 1023,9 88 - -
03:24 14,2 12,2 7,9 NW 20,9 1023,6 88 - -
03:29 14,3 12,4 12,9 WZW 9,8 1024,3 88 - -
03:34 14,3 12,4 17,7 WZW 11,9 1024,3 88 - -
03:39 14,4 12,4 18,5 WNW 10,3 1024,3 88 - -
03:44 14,4 12,4 11,3 Westen 8,7 1024,3 88 - -
03:49 14,4 12,4 18,5 WZW 12,6 1024,3 88 - -
03:54 14,4 12,5 22,2 Westen 14,5 1024,3 88 - -
03:59 14,4 12,5 14,8 NW 9,0 1024,3 88 - -
04:04 14,4 12,4 11,1 Westen 24,1 1023,6 88 - -
04:09 14,5 12,6 14,8 WNW 9,5 1024,3 88 - -
04:14 14,5 12,6 22,2 WNW 8,5 1023,9 88 - -
04:19 14,5 12,6 17,7 Westen 11,7 1024,3 88 - -
04:24 14,5 12,6 18,5 WNW 12,1 1024,3 88 - -
04:29 14,5 12,6 18,5 WNW 12,1 1024,3 88 - -
04:34 14,6 12,6 17,7 NNO 7,4 1024,3 88 - -
04:39 14,6 12,7 17,7 NW 12,7 1024,3 88 - -
04:44 14,6 12,7 16,1 Westen 11,7 1024,3 88 - -
04:49 14,6 12,6 20,4 Westen 13,8 1024,3 88 - -
04:54 14,6 12,6 19,3 WZW 12,4 1024,3 88 - -
04:59 14,5 12,7 4,7 WNW 16,1 1023,9 89 - -
05:04 14,6 12,8 16,7 WNW 9,7 1024,3 89 - -
05:09 14,6 12,8 14,8 Westen 10,5 1024,3 89 - -
05:14 14,6 12,8 20,4 WNW 10,5 1024,3 89 - -
05:19 14,6 12,8 20,4 NNW 11,7 1024,3 89 - -
05:24 14,6 12,8 20,4 Westen 13,4 1024,3 89 - -
05:29 14,6 12,7 16,7 Westen 10,1 1024,3 88 - -
05:34 14,6 12,7 18,5 WNW 11,6 1024,3 88 - -
05:39 14,6 12,6 16,7 Westen 10,0 1024,3 88 - -
05:44 14,6 12,6 20,4 NW 13,4 1024,3 88 - -
05:49 14,6 12,6 18,5 NW 10,8 1024,3 88 - -
05:54 14,6 12,6 11,1 Westen 10,8 1023,9 88 - -
05:59 14,6 12,6 4,7 NNW 22,5 1023,6 88 - -

Download your copy of this data-set  here

Our weather-data as stored at Weather Underground. Script ontwikkeld door Jim McMurry. Aangepast voor de template door Leuven-Template.eu

Apparatuur in gebruik:

Weerstation
Davis VP2

Weerprogramma
Meteobridge

Weercomputer
Shuttle

Webleverancier
WeservIT

Davis VP2

Meteobridge

Shuttle

WeservIT